Find OneWeb SL0207

NORAD ID: 48242 Int'l Des: 2021-031 Owner: ONEWEBN Country: UK Constellation: oneweb operational
LEOCIRCULARPOLARONEWEB_TYPE

当前视图

正在加载3D地球...

About OneWeb SL0207

OneWeb SL0207 (NORAD 48242) is a oneweb constellation satellite launched Apr 25, 2021 by ONEWEBN of UK. It operates in LEO, CIRCULAR, POLAR, ONEWEB_TYPE orbit with a mass of 148.00 kg.

关于 OneWeb SL0207

正在加载描述...

即将过境

Passes for default location (London). Set your location on the main map for personalized predictions.

高度历史

Loading altitude history...

两行轨道根数

1 48242U 21031AJ 26195.50446490 -.00000159 00000-0 -46387-3 0 9990
2 48242 87.8974 284.2576 0002045 92.0538 268.0826 13.14501045251887
Epoch: Jul 14, 2026 • Age: 11 hours

当前状态

高度 1236.0 km
远地点 / 近地点 N/A
速度 7.24 km/s
星下点 -84.83°S, 11.98°W
发射日期 Apr 25, 2021
运行时间 5.2 years
类型 internet

技术详情

分类 Payload
质量 148.00 kg
干质量 140.00 kg
总质量 148.00 kg
长度 1.30 m
直径 1.00 m
跨度 5.00 m
形状 Trapezoid+2 pan
制造商 ONEWUS
平台类型 ARROW
阶段状态 In Orbit
所有者/国家 ONEWEBN/UK

Most Searched